1489258800.98,41955,8.19,73046.0,-13.41,-46.69,-46.75,0,*66
1489258802.27,41956,8.19,73042.0,-13.41,-46.69,-46.69,0,*68
1489258803.56,41957,8.19,73038.5,-13.41,-46.61,-46.61,0,*69
1489258804.85,41958,8.19,73044.8,-13.41,-46.41,-46.27,0,*66
1489258806.15,41959,8.19,73038.0,-13.41,-46.27,-46.41,0,*67
1489258807.44,41960,8.19,73042.3,-13.41,-46.41,-46.49,0,*65
1489258808.69,41961,8.19,73042.8,-13.37,-46.35,-46.21,0,*68
1489258809.97,41962,8.19,73046.0,-13.37,-46.35,-46.15,0,*6C
1489258811.26,41963,8.19,73044.3,-13.41,-46.41,-46.27,0,*6E
1489258812.5,41964,8.19,73050.3,-13.43,-46.49,-46.35,0,*60
1489258813.78,41965,8.19,73048.3,-13.43,-46.15,-46.07,0,*69
1489258815.05,41966,8.19,73050.3,-13.43,-46.27,-46.15,0,*68
1489258816.32,41967,8.19,73046.3,-13.41,-46.21,-46.07,0,*6E
1489258817.6,41968,8.19,73042.5,-13.43,-46.27,-46.15,0,*66
1489258818.9,41969,8.19,73044.3,-13.41,-46.27,-46.27,0,*64
1489258820.19,41970,8.19,73044.5,-13.41,-46.61,-46.41,0,*6E
1489258821.43,41971,8.19,73046.0,-13.43,-46.69,-46.55,0,*60
1489258822.7,41972,8.19,73046.3,-13.45,-46.69,-46.55,0,*65
1489258823.94,41973,8.19,73048.0,-13.43,-46.75,-46.69,0,*60
1489258825.21,41974,8.19,73044.3,-13.45,-46.83,-46.69,0,*68
1489258826.48,41975,8.19,73046.3,-13.45,-46.75,-46.49,0,*62
1489258827.77,41976,8.19,73046.8,-13.45,-46.69,-46.49,0,*6C
1489258829.04,41977,8.19,73048.3,-13.45,-46.69,-46.35,0,*66
1489258830.28,41978,8.19,73046.8,-13.47,-46.55,-46.27,0,*67
1489258831.55,41979,8.19,73042.0,-13.47,-46.49,-46.27,0,*6B
1489258832.82,41980,8.19,73040.3,-13.49,-46.55,-46.41,0,*6E
1489258834.1,41981,8.19,73042.3,-13.47,-46.49,-46.49,0,*64
1489258835.34,41982,8.19,73038.0,-13.49,-46.55,-46.35,0,*6F
1489258836.6,41983,8.19,73040.5,-13.49,-46.55,-46.61,0,*6F
1489258837.89,41984,8.19,73046.8,-13.49,-46.61,-46.61,0,*6F
1489258839.18,41985,8.19,73046.0,-13.53,-46.61,-46.41,0,*67
1489258840.45,41986,8.19,73042.0,-13.53,-46.41,-46.35,0,*65
1489258841.69,41987,8.19,73048.5,-13.55,-46.49,-46.21,0,*6F
1489258842.95,41988,8.19,73042.3,-13.55,-46.61,-46.27,0,*6C
1489258844.2,41989,8.19,73040.8,-13.55,-46.27,-46.21,0,*69
1489258845.44,41990,8.19,73032.0,-13.53,-46.21,-46.21,0,*61
1489258846.7,41991,8.19,73034.3,-13.55,-46.41,-46.27,0,*66
1489258847.95,41992,8.19,73034.0,-13.55,-46.27,-46.21,0,*63
1489258849.21,41993,8.19,73034.8,-13.55,-46.41,-46.27,0,*64
1489258850.45,41994,8.19,73032.0,-13.55,-46.27,-46.21,0,*65
1489258851.67,41995,8.19,73042.5,-13.55,-46.21,-46.21,0,*62
1489258852.97,41996,8.19,73040.8,-13.57,-46.41,-46.27,0,*63
1489258854.24,41997,8.19,73040.3,-13.57,-46.49,-46.21,0,*6C
1489258855.55,41998,8.19,73040.8,-13.57,-46.27,-46.27,0,*6D
1489258856.77,41999,8.19,73034.8,-13.59,-46.35,-46.35,0,*62
1489258858.04,42000,8.19,73032.8,-13.59,-46.07,-46.27,0,*6A
1489258859.29,42001,8.19,73032.3,-13.57,-46.01,-46.21,0,*65
1489258860.54,42002,8.19,73030.5,-13.59,-45.87,-46.27,0,*63
1489258861.8,42003,8.19,73028.8,-13.59,-45.73,-46.07,0,*6B
1489258863.02,42004,8.19,73032.0,-13.59,-45.95,-46.35,0,*65
1489258864.3,42005,8.19,73034.0,-13.59,-46.27,-46.49,0,*65
1489258865.52,42006,8.19,73032.0,-13.63,-46.35,-46.55,0,*61
1489258866.76,42007,8.19,73038.3,-13.63,-46.55,-46.61,0,*61
1489258868.0,42008,8.19,73038.5,-13.63,-46.55,-46.61,0,*6E
1489258869.26,42009,8.19,73042.3,-13.61,-46.55,-46.61,0,*6D
1489258870.48,42010,8.19,73038.5,-13.63,-46.55,-46.55,0,*60
1489258871.75,42011,8.19,73038.8,-13.61,-46.49,-46.55,0,*6E
1489258872.99,42012,8.19,73036.5,-13.63,-46.75,-46.61,0,*67
1489258874.22,42013,8.19,73028.3,-13.63,-46.83,-46.83,0,*63
1489258875.44,42014,8.19,73028.3,-13.63,-46.83,-46.83,0,*64
1489258876.73,42015,8.19,73034.3,-13.67,-46.69,-46.61,0,*69
1489258877.95,42016,8.19,73034.3,-13.65,-46.21,-46.35,0,*65
1489258879.2,42017,8.19,73032.8,-13.65,-45.81,-45.73,0,*6C
1489258880.46,42018,8.19,73026.8,-13.65,-45.81,-45.81,0,*6E
1489258881.68,42019,8.19,73026.3,-13.65,-45.95,-46.35,0,*66
1489258882.92,42020,8.19,73026.8,-13.65,-46.21,-46.41,0,*63
1489258884.14,42021,8.19,73030.0,-13.65,-46.55,-46.55,0,*64
1489258885.36,42022,8.19,73034.0,-13.65,-46.55,-46.55,0,*67
1489258886.6,42023,8.19,73030.3,-13.65,-46.21,-46.41,0,*60
1489258887.84,42024,8.19,73032.8,-13.65,-46.27,-46.21,0,*67
1489258889.13,42025,8.19,73034.0,-13.67,-46.41,-46.27,0,*62
1489258890.35,42026,8.19,73032.0,-13.65,-46.21,-46.21,0,*63
1489258891.57,42027,8.19,73036.5,-13.65,-46.35,-46.35,0,*62
1489258892.79,42028,8.19,73034.8,-13.65,-46.35,-46.21,0,*68
1489258894.03,42029,8.19,73038.3,-13.65,-46.41,-46.35,0,*6F
1489258895.32,42030,8.19,73036.0,-13.67,-46.61,-46.41,0,*64
1489258896.57,42031,8.19,73036.5,-13.67,-46.21,-46.01,0,*65
1489258897.8,42032,8.19,73036.8,-13.67,-46.21,-45.87,0,*6B
1489258899.07,42033,8.19,73034.3,-13.67,-46.21,-45.81,0,*6C
1489258900.31,42034,8.19,73030.3,-13.67,-46.21,-45.87,0,*6D
1489258901.55,42035,8.19,73026.0,-13.67,-46.21,-46.01,0,*61
1489258902.85,42036,8.19,73032.3,-13.67,-46.07,-46.07,0,*60
1489258904.14,42037,8.19,73030.8,-13.67,-46.41,-46.27,0,*61
1489258905.4,42038,8.19,73036.3,-13.69,-46.61,-46.49,0,*6A
1489258906.67,42039,8.19,73034.3,-13.69,-46.61,-46.69,0,*69
1489258907.93,42040,8.19,73034.5,-13.69,-46.49,-46.61,0,*65
1489258909.19,42041,8.13,73034.3,-13.69,-46.49,-46.61,0,*64
1489258910.48,42042,8.19,73038.0,-13.71,-46.49,-46.69,0,*66
1489258911.75,42043,8.19,73036.0,-13.69,-46.27,-46.41,0,*6C
1489258912.99,42044,8.19,73038.0,-13.69,-46.35,-46.49,0,*60
1489258914.26,42045,8.19,73034.0,-13.69,-46.27,-46.41,0,*6A
1489258915.53,42046,8.19,73042.0,-13.69,-46.27,-46.41,0,*69
1489258916.77,42047,8.19,73042.5,-13.71,-46.35,-46.55,0,*67
1489258918.03,42048,8.19,73038.3,-13.71,-46.49,-46.55,0,*63
1489258919.27,42049,8.19,73034.3,-13.71,-46.55,-46.55,0,*6F
1489258920.54,42050,8.19,73034.3,-13.71,-46.55,-46.49,0,*6A
1489258921.78,42051,8.19,73036.3,-13.71,-46.55,-46.55,0,*66
1489258923.04,42052,8.19,73038.5,-13.71,-46.49,-46.55,0,*68
1489258924.31,42053,8.19,73036.8,-13.71,-46.35,-46.49,0,*6F
1489258925.58,42054,8.13,73024.5,-13.71,-46.49,-46.55,0,*6E
1489258926.85,42055,8.19,73020.5,-13.75,-46.49,-46.55,0,*6B
1489258928.09,42056,8.19,73026.8,-13.75,-46.35,-46.55,0,*63
1489258929.34,42057,8.19,73018.3,-13.75,-46.35,-46.55,0,*62
1489258930.58,42058,8.19,73020.8,-13.75,-46.35,-46.55,0,*6D
1489258931.85,42059,8.19,73020.5,-13.75,-46.49,-46.55,0,*67
1489258933.07,42060,8.13,73018.8,-13.77,-46.55,-46.75,0,*60
1489258934.31,42061,8.19,73022.0,-13.77,-46.61,-46.75,0,*66
1489258935.6,42062,8.19,73034.3,-13.75,-46.69,-46.69,0,*62
1489258936.87,42063,8.19,73034.8,-13.75,-46.55,-46.69,0,*6C
1489258938.08,42064,8.19,73030.5,-13.77,-46.55,-46.75,0,*64
1489258939.32,42065,8.19,73028.0,-13.77,-46.55,-46.61,0,*60
1489258940.56,42066,8.19,73032.8,-13.77,-46.41,-46.55,0,*61
1489258941.8,42067,8.19,73038.5,-13.77,-46.55,-46.61,0,*62
1489258943.04,42068,8.13,73038.0,-13.77,-46.55,-46.61,0,*6D
1489258944.28,42069,8.13,73038.0,-13.77,-46.41,-46.55,0,*6E
1489258945.52,42070,8.19,73038.5,-13.77,-46.55,-46.61,0,*64
1489258946.76,42071,8.13,73038.5,-13.79,-46.55,-46.55,0,*6C
1489258948.03,42072,8.13,73048.8,-13.79,-46.55,-46.61,0,*68
1489258949.28,42073,8.13,73046.5,-13.81,-46.01,-46.15,0,*6C
1489258950.53,42074,8.19,73044.3,-13.81,-46.07,-46.01,0,*68
1489258951.77,42075,8.13,73042.0,-13.79,-46.21,-46.35,0,*6D
1489258953.02,42076,8.19,73044.0,-13.79,-46.21,-46.35,0,*6E
1489258954.29,42077,8.19,73044.3,-13.79,-46.15,-46.35,0,*68
1489258955.56,42078,8.19,73046.5,-13.79,-46.15,-46.21,0,*62
1489258956.81,42079,8.19,73046.5,-13.79,-46.35,-46.35,0,*64
1489258958.06,42080,8.19,73048.0,-13.79,-46.01,-46.21,0,*60
1489258959.34,42081,8.19,73054.0,-13.79,-46.01,-46.15,0,*66
1489258960.61,42082,8.19,73050.8,-13.79,-46.15,-46.21,0,*67
1489258961.88,42083,8.13,73050.5,-13.79,-46.01,-45.81,0,*6A
1489258963.12,42084,8.19,73054.3,-13.81,-45.73,-45.61,0,*62
1489258964.37,42085,8.13,73044.8,-13.79,-45.53,-45.53,0,*67
1489258965.61,42086,8.19,73048.5,-13.79,-45.95,-45.95,0,*64
1489258966.85,42087,8.19,73050.3,-13.79,-46.01,-45.95,0,*6B
1489258968.14,42088,8.19,73050.3,-13.79,-45.73,-45.73,0,*6A
1489258969.4,42089,8.19,73046.8,-13.81,-45.73,-45.73,0,*6C
1489258970.63,42090,8.19,73044.3,-13.79,-45.67,-45.67,0,*63
1489258971.88,42091,8.19,73046.5,-13.79,-45.53,-45.53,0,*62
1489258973.19,42092,8.13,73040.3,-13.79,-45.27,-45.27,0,*61
1489258974.43,42093,8.19,73042.8,-13.77,-45.53,-45.47,0,*6B
1489258975.67,42094,8.19,73040.3,-13.77,-45.47,-45.33,0,*6A
1489258976.91,42095,8.13,73032.5,-13.77,-45.53,-45.47,0,*6D
1489258978.12,42096,8.19,73034.3,-13.77,-45.67,-45.67,0,*6B
1489258979.35,42097,8.19,73034.3,-13.75,-45.61,-45.67,0,*6E
1489258980.6,42098,8.19,73032.5,-13.77,-45.95,-45.81,0,*60
1489258981.81,42099,8.19,73054.5,-13.77,-45.95,-45.95,0,*64
1489258983.05,42100,8.19,73058.8,-13.77,-45.95,-45.81,0,*60
1489258984.27,42101,8.19,73060.0,-13.77,-45.33,-45.53,0,*62
1489258985.48,42102,8.13,73050.5,-13.77,-45.33,-45.53,0,*61
1489258986.69,42103,8.13,73050.3,-13.77,-45.33,-45.53,0,*60
1489258987.92,42104,8.19,73052.3,-13.77,-45.33,-45.47,0,*62
1489258989.14,42105,8.19,73050.5,-13.77,-45.53,-45.67,0,*67
1489258990.43,42106,8.19,73048.5,-13.75,-45.47,-45.47,0,*61
1489258991.66,42107,8.19,73044.3,-13.77,-45.81,-45.67,0,*6A
1489258992.92,42108,8.13,73028.3,-13.77,-45.81,-45.81,0,*6D
1489258994.18,42109,8.19,73020.3,-13.77,-45.81,-45.81,0,*6C
1489258995.42,42110,8.19,73022.3,-13.77,-45.95,-45.81,0,*61
1489258996.64,42111,8.13,73026.8,-13.77,-45.95,-45.95,0,*65
1489258997.9,42112,8.19,73034.5,-13.75,-45.87,-45.73,0,*6F
1489258999.13,42113,8.19,73032.8,-13.77,-45.81,-45.67,0,*6F
1489259000.39,42114,8.19,73040.3,-13.77,-45.81,-45.73,0,*6D
1489259001.64,42115,8.19,73042.5,-13.77,-45.81,-45.73,0,*6C
1489259002.87,42116,8.19,73040.3,-13.77,-45.53,-45.53,0,*62
1489259004.11,42117,8.19,73040.0,-13.75,-45.61,-45.41,0,*63
1489259005.32,42118,8.19,73034.8,-13.77,-45.67,-45.67,0,*6C
1489259006.56,42119,8.19,73030.5,-13.75,-45.95,-45.87,0,*6C
1489259007.8,42120,8.19,73034.3,-13.77,-46.01,-45.81,0,*6C
1489259009.04,42121,8.19,73038.8,-13.77,-46.01,-45.73,0,*60
1489259010.28,42122,8.19,73038.0,-13.77,-46.01,-45.73,0,*63
1489259011.55,42123,8.19,73044.8,-13.75,-46.07,-45.67,0,*63
1489259012.8,42124,8.19,73046.8,-13.75,-45.87,-45.47,0,*6D
1489259014.04,42125,8.19,73044.8,-13.75,-45.87,-45.61,0,*68
1489259015.31,42126,8.13,73044.8,-13.77,-46.15,-45.81,0,*6F
1489259016.56,42127,8.19,73048.8,-13.79,-46.21,-45.95,0,*62
1489259017.81,42128,8.19,73048.3,-13.79,-46.21,-46.01,0,*63
1489259019.05,42129,8.19,73052.8,-13.79,-46.21,-46.01,0,*62
1489259020.29,42130,8.19,73056.0,-13.79,-46.21,-45.95,0,*64
1489259021.59,42131,8.19,73054.5,-13.79,-46.15,-45.81,0,*67
1489259022.87,42132,8.19,73052.8,-13.79,-46.01,-45.81,0,*61
1489259024.14,42133,8.13,73048.3,-13.79,-46.01,-45.81,0,*60
1489259025.41,42134,8.19,73052.0,-13.79,-46.15,-45.95,0,*67
1489259026.68,42135,8.19,73052.0,-13.79,-46.01,-45.81,0,*66
1489259027.95,42136,8.19,73050.0,-13.79,-46.01,-45.73,0,*68
1489259029.19,42137,8.19,73054.3,-13.79,-45.53,-45.13,0,*6B
1489259030.47,42138,8.19,73054.5,-13.79,-45.73,-45.47,0,*67
1489259031.71,42139,8.19,73048.0,-13.79,-45.95,-45.67,0,*6C
1489259032.95,42140,8.19,73050.8,-13.79,-45.95,-45.53,0,*65
1489259034.2,42141,8.19,73052.0,-13.81,-46.01,-45.81,0,*62
1489259035.46,42142,8.13,73042.3,-13.79,-45.81,-45.53,0,*62
1489259036.72,42143,8.19,73038.8,-13.79,-45.81,-45.67,0,*64
1489259037.99,42144,8.19,73040.0,-13.79,-45.81,-45.53,0,*64
1489259039.25,42145,8.19,73040.3,-13.79,-45.67,-45.47,0,*68
1489259040.49,42146,8.13,73034.3,-13.79,-45.67,-45.53,0,*6E
1489259041.73,42147,8.19,73034.8,-13.79,-45.95,-45.53,0,*62
1489259042.97,42148,8.19,73034.5,-13.79,-45.95,-45.67,0,*6A
1489259044.24,42149,8.19,73038.8,-13.79,-45.95,-45.81,0,*63
1489259045.51,42150,8.19,73042.5,-13.79,-45.95,-45.81,0,*6B
1489259046.8,42151,8.19,73046.0,-13.79,-46.15,-45.81,0,*61
1489259048.05,42152,8.19,73042.8,-13.79,-46.01,-45.67,0,*6F
1489259049.27,42153,8.19,73036.3,-13.81,-46.01,-45.61,0,*6F
1489259050.49,42154,8.19,73034.8,-13.81,-46.01,-45.61,0,*68
1489259051.76,42155,8.19,73026.0,-13.79,-45.81,-45.53,0,*64
1489259053.0,42156,8.19,73032.3,-13.81,-45.73,-45.53,0,*6D
1489259054.26,42157,8.19,73042.3,-13.79,-45.81,-45.53,0,*66
1489259055.53,42158,8.13,73044.3,-13.79,-45.81,-45.53,0,*69
1489259056.74,42159,8.13,73042.8,-13.81,-45.87,-45.67,0,*6E
1489259057.96,42160,8.13,73038.5,-13.81,-45.87,-45.61,0,*62
1489259059.2,42161,8.13,73040.5,-13.79,-45.95,-45.53,0,*66
1489259060.44,42162,8.13,73038.8,-13.81,-45.81,-45.61,0,*66
1489259061.7,42163,8.19,73040.5,-13.79,-45.81,-45.67,0,*66
1489259062.94,42164,8.13,73046.8,-13.81,-45.87,-45.81,0,*68
1489259064.21,42165,8.13,73046.0,-13.83,-45.87,-45.81,0,*6B
1489259065.45,42166,8.19,73050.3,-13.83,-45.87,-45.61,0,*66
1489259066.71,42167,8.19,73050.8,-13.83,-45.73,-45.61,0,*6C
1489259067.93,42168,8.13,73046.0,-13.85,-45.67,-45.61,0,*60
1489259069.2,42169,8.19,73044.0,-13.83,-45.73,-45.53,0,*63
1489259070.46,42170,8.19,73046.0,-13.83,-45.73,-45.53,0,*6B
1489259071.72,42171,8.19,73046.5,-13.83,-45.73,-45.53,0,*6A
1489259073.01,42172,8.19,73046.0,-13.83,-45.81,-45.73,0,*66
1489259074.27,42173,8.19,73040.0,-13.83,-45.87,-45.73,0,*61
1489259075.51,42174,8.19,73040.0,-13.83,-45.87,-45.95,0,*6E
1489259076.76,42175,8.19,73040.5,-13.83,-46.01,-46.01,0,*6C
1489259078.01,42176,8.13,73036.5,-13.83,-46.01,-45.87,0,*62
1489259079.25,42177,8.19,73042.8,-13.85,-46.07,-45.95,0,*60
1489259080.47,42178,8.13,73040.8,-13.85,-45.95,-45.95,0,*67
1489259081.73,42179,8.19,73046.3,-13.83,-45.81,-45.87,0,*66
1489259083.01,42180,8.19,73046.0,-13.85,-46.07,-46.07,0,*60
1489259084.28,42181,8.13,73040.0,-13.85,-46.07,-46.07,0,*61
1489259085.5,42182,8.19,73036.5,-13.85,-45.95,-45.95,0,*62
1489259086.74,42183,8.19,73040.8,-13.85,-45.81,-45.87,0,*65
1489259087.96,42184,8.13,73040.8,-13.85,-45.95,-45.87,0,*67
1489259089.23,42185,8.19,73044.0,-13.83,-46.01,-45.73,0,*65
1489259090.5,42186,8.19,73040.5,-13.85,-46.07,-45.81,0,*6B
1489259091.76,42187,8.19,73040.0,-13.87,-45.95,-45.47,0,*6A
1489259093.02,42188,8.19,73036.3,-13.87,-45.87,-45.07,0,*62
1489259094.31,42189,8.19,73034.8,-13.87,-45.47,-44.93,0,*63
1489259095.55,42190,8.19,73036.5,-13.87,-45.41,-44.87,0,*68
1489259096.79,42191,8.19,73032.5,-13.87,-45.41,-44.87,0,*69
1489259098.05,42192,8.19,73030.5,-13.87,-45.47,-44.99,0,*63
1489259099.3,42193,8.19,73028.3,-13.89,-45.33,-44.93,0,*65
1489259100.54,42194,8.19,73032.5,-13.87,-45.21,-44.79,0,*6B
1489259101.78,42195,8.19,73036.5,-13.89,-45.33,-45.07,0,*6F
1489259103.02,42196,8.19,73040.8,-13.87,-45.21,-44.99,0,*67
1489259104.3,42197,8.19,73044.8,-13.87,-45.27,-44.99,0,*60
1489259105.54,42198,8.19,73046.3,-13.87,-45.21,-44.99,0,*69
1489259106.82,42199,8.19,73044.0,-13.87,-45.27,-45.21,0,*6C
1489259108.06,42200,8.19,73046.5,-13.89,-45.73,-45.53,0,*65
1489259109.28,42201,8.19,73046.3,-13.89,-45.95,-45.67,0,*6B
1489259110.5,42202,8.19,73044.3,-13.89,-45.95,-45.67,0,*68
1489259111.72,42203,8.19,73046.5,-13.89,-45.95,-45.67,0,*69
1489259112.94,42204,8.19,73046.8,-13.89,-46.01,-45.33,0,*61
1489259114.18,42205,8.19,73042.5,-13.91,-45.87,-45.33,0,*64
1489259115.42,42206,8.19,73044.3,-13.91,-45.87,-45.33,0,*67
1489259116.68,42207,8.19,73040.0,-13.91,-45.67,-45.07,0,*6F
1489259117.92,42208,8.19,73036.8,-13.91,-45.67,-44.87,0,*69
1489259119.2,42209,8.19,73038.5,-13.91,-45.47,-44.47,0,*66
1489259120.48,42210,8.19,73040.5,-13.91,-45.27,-44.87,0,*64
1489259121.71,42211,8.13,73036.5,-13.93,-44.87,-43.49,0,*69
1489259123.0,42212,8.19,73036.3,-13.91,-43.67,-42.19,0,*65
1489259124.28,42213,8.13,73036.8,-13.91,-43.61,-42.95,0,*66
1489259125.52,42214,8.13,73040.3,-13.93,-44.07,-44.01,0,*6F
1489259126.8,42215,8.19,73042.5,-13.91,-45.07,-44.87,0,*63
1489259128.06,42216,8.13,73036.5,-13.91,-45.13,-44.67,0,*6B
1489259129.33,42217,8.13,73038.3,-13.93,-45.27,-44.93,0,*64
1489259130.55,42218,8.19,73044.0,-13.93,-45.33,-44.87,0,*6B
1489259131.8,42219,8.19,73052.3,-13.93,-45.27,-44.87,0,*6F
1489259133.05,42220,8.19,73044.8,-13.93,-45.27,-44.87,0,*65
1489259134.26,42221,8.19,73050.8,-13.93,-45.13,-44.61,0,*6B
1489259135.5,42222,8.13,73040.5,-13.93,-45.13,-44.67,0,*6E
1489259136.8,42223,8.13,73042.8,-13.91,-45.27,-45.07,0,*6D
1489259138.03,42224,8.19,73040.8,-13.95,-45.41,-45.41,0,*6C
1489259139.25,42225,8.13,73034.3,-13.93,-45.33,-45.53,0,*6D
1489259140.46,42226,8.13,73026.5,-13.93,-45.53,-45.67,0,*6F
1489259141.68,42227,8.13,73028.8,-13.93,-45.53,-45.67,0,*6E
1489259142.92,42228,8.19,73030.3,-13.91,-45.67,-45.67,0,*64
1489259144.2,42229,8.19,73034.0,-13.95,-45.81,-45.73,0,*6C
1489259145.48,42230,8.13,73030.5,-13.95,-46.01,-45.81,0,*62
1489259146.72,42231,8.13,73034.0,-13.95,-45.95,-45.95,0,*68
1489259147.96,42232,8.19,73046.5,-13.95,-45.53,-45.41,0,*68
1489259149.2,42233,8.19,73040.0,-13.95,-45.41,-45.33,0,*6F
1489259150.46,42234,8.13,73036.8,-13.95,-45.81,-45.61,0,*63
1489259151.7,42235,8.19,73040.0,-13.93,-45.67,-45.47,0,*68
1489259152.92,42236,8.13,73032.8,-13.93,-45.95,-45.87,0,*6A
1489259154.13,42237,8.13,73028.3,-13.93,-45.95,-45.87,0,*6B
1489259155.35,42238,8.19,73030.0,-13.93,-45.95,-45.87,0,*64
1489259156.56,42239,8.13,73024.8,-13.93,-45.95,-45.87,0,*65
1489259157.78,42240,8.19,73030.8,-13.93,-46.01,-45.95,0,*66
1489259159.03,42241,8.13,73030.3,-13.93,-46.15,-45.95,0,*62
1489259160.28,42242,8.13,73032.3,-13.95,-46.21,-46.01,0,*6E
1489259161.58,42243,8.13,73040.3,-13.95,-46.07,-46.07,0,*6D
1489259162.82,42244,8.13,73040.0,-13.95,-46.21,-46.21,0,*6A
1489259164.09,42245,8.19,73042.0,-13.95,-46.27,-46.21,0,*6D
1489259165.39,42246,8.19,73044.0,-13.95,-46.41,-46.27,0,*68
1489259166.68,42247,8.13,73042.8,-13.95,-46.41,-46.27,0,*69
1489259167.95,42248,8.19,73040.3,-13.99,-46.49,-46.49,0,*6A
1489259169.25,42249,8.19,73042.5,-13.95,-46.41,-46.27,0,*67
1489259170.54,42250,8.19,73042.8,-13.95,-46.49,-46.41,0,*67
1489259171.84,42251,8.19,73044.8,-13.95,-46.49,-46.41,0,*66
1489259173.06,42252,8.13,73040.5,-13.99,-46.55,-46.35,0,*67
1489259174.31,42253,8.19,73050.5,-13.99,-46.35,-46.27,0,*63
1489259175.56,42254,8.19,73048.5,-13.99,-46.35,-46.27,0,*64
1489259176.84,42255,8.19,73050.3,-13.99,-46.15,-46.07,0,*65
1489259178.12,42256,8.13,73044.5,-14.01,-46.15,-46.01,0,*66
1489259179.4,42257,8.19,73048.8,-13.99,-46.27,-46.07,0,*66
1489259180.64,42258,8.19,73048.5,-13.99,-46.07,-45.87,0,*60
1489259181.86,42259,8.13,73038.8,-13.99,-46.01,-45.87,0,*67
1489259183.11,42260,8.19,73038.8,-13.99,-46.07,-45.87,0,*6B
1489259184.36,42261,8.19,73034.8,-13.99,-46.27,-46.01,0,*65
1489259185.62,42262,8.19,73028.8,-13.99,-46.35,-46.27,0,*61
1489259186.84,42263,8.13,73028.0,-13.99,-46.35,-46.35,0,*63
1489259188.06,42264,8.19,73044.5,-13.99,-46.35,-46.35,0,*64
1489259189.32,42265,8.19,73046.3,-13.99,-46.35,-46.27,0,*66
1489259190.59,42266,8.19,73040.5,-14.01,-46.35,-46.27,0,*63
1489259191.87,42267,8.19,73042.5,-14.01,-46.15,-46.01,0,*64
1489259193.15,42268,8.19,73040.0,-14.01,-46.07,-46.01,0,*68
1489259194.45,42269,8.13,73034.5,-14.01,-46.27,-46.27,0,*6F
1489259195.75,42270,8.19,73034.8,-14.01,-46.27,-46.07,0,*65
1489259197.03,42271,8.13,73032.3,-13.99,-46.15,-46.07,0,*63
1489259198.3,42272,8.19,73036.8,-13.95,-46.21,-46.07,0,*6B
1489259199.55,42273,8.19,73038.3,-13.99,-46.35,-46.49,0,*69
1489259200.85,42274,8.19,73040.3,-14.01,-46.15,-46.07,0,*60
1489259202.13,42275,8.19,73040.3,-13.99,-46.27,-46.15,0,*65
1489259203.43,42276,8.19,73038.5,-14.01,-46.15,-46.07,0,*62
1489259204.74,42277,8.19,73036.5,-14.01,-46.15,-46.07,0,*63
1489259206.01,42278,8.19,73036.0,-14.01,-46.15,-46.01,0,*6A
1489259207.32,42279,8.19,73036.8,-14.01,-46.27,-46.15,0,*6F
1489259208.62,42280,8.19,73036.5,-14.01,-46.15,-46.15,0,*68
1489259209.87,42281,8.13,73034.0,-14.01,-46.35,-46.35,0,*69
1489259211.09,42282,8.19,73036.3,-13.99,-46.35,-46.35,0,*6C
1489259212.33,42283,8.19,73036.3,-14.03,-46.41,-46.35,0,*6A
1489259213.58,42284,8.19,73040.0,-14.01,-46.35,-46.35,0,*6C
1489259214.85,42285,8.19,73034.0,-14.01,-46.49,-46.35,0,*66
1489259216.07,42286,8.19,73034.5,-13.99,-46.35,-46.35,0,*68
1489259217.35,42287,8.19,73036.8,-14.01,-46.49,-46.35,0,*64
1489259218.64,42288,8.19,73034.3,-14.01,-46.69,-46.49,0,*62
1489259219.89,42289,8.19,73034.3,-14.01,-46.55,-46.55,0,*61
1489259221.13,42290,8.19,73030.0,-14.03,-46.41,-46.21,0,*6D
1489259222.4,42291,8.19,73026.8,-14.01,-46.35,-46.27,0,*6B
1489259223.64,42292,8.19,73026.0,-14.03,-46.55,-46.41,0,*6C
1489259224.87,42293,8.19,73026.8,-14.03,-46.41,-46.21,0,*6E
1489259226.11,42294,8.19,73016.5,-14.03,-46.41,-46.35,0,*6C
1489259227.35,42295,8.19,73022.0,-14.03,-46.21,-46.07,0,*6A
1489259228.65,42296,8.19,73030.0,-14.01,-46.27,-46.15,0,*6E
1489259229.9,42297,8.19,73032.5,-14.03,-46.21,-46.15,0,*6B
1489259231.17,42298,8.19,73042.8,-14.03,-46.15,-46.07,0,*60
1489259232.42,42299,8.19,73038.0,-14.05,-46.35,-46.35,0,*64
1489259233.66,42300,8.19,73034.8,-14.03,-46.41,-46.35,0,*60
1489259234.89,42301,8.19,73038.3,-14.03,-46.41,-46.21,0,*64
1489259236.14,42302,8.19,73040.5,-14.03,-46.35,-46.15,0,*63
1489259237.4,42303,8.19,73048.0,-14.03,-46.41,-46.15,0,*61
1489259238.67,42304,8.19,73042.8,-14.05,-46.41,-46.35,0,*62
1489259239.92,42305,8.19,73048.5,-14.05,-46.55,-46.35,0,*66
1489259241.16,42306,8.19,73052.5,-14.05,-46.21,-45.95,0,*6F
1489259242.37,42307,8.19,73050.3,-14.03,-46.35,-45.95,0,*6D
1489259243.59,42308,8.19,73044.5,-14.03,-46.35,-45.95,0,*62
1489259244.83,42309,8.19,73046.0,-14.05,-46.21,-45.87,0,*63
1489259246.1,42310,8.19,73044.5,-14.05,-46.35,-45.73,0,*65
1489259247.35,42311,8.19,73040.5,-14.05,-46.21,-45.87,0,*6A
1489259248.62,42312,8.19,73052.8,-14.05,-46.15,-45.53,0,*67
1489259249.91,42313,8.19,73054.8,-14.05,-46.07,-45.47,0,*60
1489259251.18,42314,8.19,73056.8,-14.05,-46.07,-45.33,0,*64
1489259252.42,42315,8.19,73056.8,-14.05,-45.67,-44.87,0,*6E
1489259253.67,42316,8.19,73056.0,-14.05,-45.53,-44.87,0,*6A
1489259254.91,42317,8.19,73052.3,-14.05,-45.53,-44.79,0,*6A
1489259256.15,42318,8.19,73056.3,-14.03,-45.53,-45.07,0,*6B
1489259257.39,42319,8.19,73060.3,-14.01,-45.21,-44.61,0,*6C
1489259258.62,42320,8.19,73056.0,-14.03,-45.33,-44.67,0,*61
1489259259.88,42321,8.19,73052.3,-14.01,-45.41,-45.07,0,*60
1489259261.11,42322,8.19,73048.0,-14.01,-45.41,-44.99,0,*65
1489259262.36,42323,8.19,73048.3,-14.03,-45.27,-44.79,0,*68
1489259263.63,42324,8.19,73046.8,-14.01,-45.27,-44.99,0,*63
1489259264.9,42325,8.19,73038.3,-14.01,-45.27,-44.99,0,*62
1489259266.16,42326,8.13,73034.3,-14.01,-45.41,-45.07,0,*67
1489259267.43,42327,8.19,73032.8,-14.01,-45.61,-45.27,0,*66
1489259268.7,42328,8.19,73024.8,-14.01,-45.81,-45.61,0,*65
1489259269.91,42329,8.19,73022.8,-13.99,-45.67,-45.61,0,*6A
1489259271.17,42330,8.19,73018.8,-14.01,-45.81,-45.67,0,*6A
1489259272.44,42331,8.19,73016.5,-14.01,-46.07,-45.67,0,*66
1489259273.7,42332,8.19,73020.0,-14.01,-45.81,-45.67,0,*68
1489259274.91,42333,8.19,73020.8,-13.99,-45.67,-45.61,0,*61
1489259276.15,42334,8.19,73018.8,-13.99,-45.81,-45.67,0,*68
1489259277.42,42335,8.19,73014.3,-13.99,-46.07,-45.81,0,*6C
1489259278.66,42336,8.13,73008.3,-13.99,-45.81,-45.61,0,*6C
1489259279.88,42337,8.19,73024.0,-13.99,-45.67,-45.61,0,*65
1489259281.12,42338,8.19,73028.5,-13.99,-45.81,-45.67,0,*64
1489259282.33,42339,8.19,73044.0,-13.99,-45.41,-45.41,0,*6D
1489259283.57,42340,8.19,73044.8,-14.01,-45.61,-45.61,0,*65
1489259284.82,42341,8.19,73050.3,-13.95,-45.61,-45.53,0,*6F
1489259286.05,42342,8.19,73044.8,-13.99,-45.81,-45.67,0,*69
1489259287.29,42343,8.19,73042.0,-13.99,-45.81,-45.67,0,*68
1489259288.53,42344,8.19,73048.3,-13.99,-45.61,-45.47,0,*63
1489259289.77,42345,8.19,73052.3,-13.99,-45.41,-45.27,0,*66
1489259291.05,42346,8.19,73054.0,-13.93,-45.27,-45.27,0,*6F
1489259292.26,42347,8.19,73048.5,-13.99,-45.87,-45.67,0,*6A
1489259293.48,42348,8.19,73046.8,-13.99,-46.01,-45.87,0,*66
1489259294.71,42349,8.19,73044.8,-13.99,-46.01,-46.01,0,*6A
1489259295.93,42350,8.19,73044.8,-13.99,-46.01,-45.87,0,*6F
1489259297.15,42351,8.19,73048.5,-13.99,-46.01,-45.87,0,*6E
1489259298.42,42352,8.19,73044.3,-13.95,-45.95,-45.81,0,*69
1489259299.71,42353,8.19,73042.3,-13.95,-45.81,-45.81,0,*6D
1489259300.96,42354,8.19,73040.3,-13.95,-46.21,-46.01,0,*68